Indiana, PA

4:22 PM EST on December 13, 2017 (GMT -0500)
Indiana County-Stewart

Weather History for KIDI - March, 2013

Change the Weather History Date:

Monday, March 11, 2013

  Actual Average Record
Temperature  
Mean Temperature 54 °F -  
Max Temperature 57 °F 46 °F 73 °F (1977)
Min Temperature 51 °F 25 °F -10 °F (1960)
Degree Days  
Heating Degree Days 11    
Growing Degree Days 4 (Base 50)    
Moisture  
Dew Point 33 °F    
Average Humidity 47    
Maximum Humidity 100    
Minimum Humidity 33    
Precipitation  
Precipitation 0.06 in - - ()
Sea Level Pressure  
Sea Level Pressure 29.90 in    
Wind  
Wind Speed 10 mph (SSE)    
Max Wind Speed 23 mph    
Max Gust Speed 34 mph    
Visibility 10 miles    
Events      
Averages and records for this station are not official NWS values.
T = Trace of Precipitation, MM = Missing Value Source: NWS Daily Summary

Daily Weather History Graph

Daily Weather History Graph

Search for Another Location

Airport or City:

Trip Planner

Search our weather history database for the weather conditions in past years. The results will help you decide how hot, cold, wet, or windy it might be!

Date:

Astronomy

Mar. 11, 2013 Rise Set
Actual Time 7:34 AM EDT 7:19 PM EDT
Civil Twilight 7:06 AM EDT 7:46 PM EDT
Nautical Twilight 6:35 AM EDT 8:18 PM EDT
Astronomical Twilight 6:03 AM EDT 8:50 PM EDT
Moon 7:06 AM EDT (3/11) 7:29 PM EDT (3/11)
Length of Visible Light 12h 39m
Length of Day
11h 44m
Waning Crescent, 0% of the Moon is Illuminated
Mar 11
Waning Crescent
Mar 11
New
Mar 19
First Quarter
Mar 27
Full
Apr 3
Last Quarter

Hourly Weather History & Observations

Time (EDT) Temp. Dew Point Humidity Pressure Visibility Wind Dir Wind Speed Gust Speed Precip Events Conditions
12:15 AM 53.6 °F 30.2 °F 41% 30.05 in 10.0 mi SW 6.9 mph 16.1 mph N/A   Unknown
12:35 AM 53.6 °F 30.2 °F 41% 30.05 in 10.0 mi South 8.1 mph - N/A   Unknown
12:55 AM 53.6 °F 30.2 °F 41% 30.03 in 10.0 mi SSE 3.5 mph - N/A   Unknown
1:15 AM 53.6 °F 30.2 °F 41% 30.03 in 10.0 mi South 9.2 mph - N/A   Unknown
1:35 AM 51.8 °F 30.2 °F 44% 30.03 in 10.0 mi SSE 5.8 mph - N/A   Unknown
1:55 AM 51.8 °F 30.2 °F 44% 30.02 in 10.0 mi South 11.5 mph 18.4 mph N/A   Unknown
2:15 AM 51.8 °F 28.4 °F 41% 30.02 in 10.0 mi South 9.2 mph - N/A   Unknown
2:35 AM 51.8 °F 28.4 °F 41% 30.01 in 10.0 mi SSE 8.1 mph 16.1 mph N/A   Unknown
3:15 AM 51.8 °F 28.4 °F 41% 29.99 in 10.0 mi SSE 12.7 mph 18.4 mph N/A   Unknown
3:35 AM 51.8 °F 28.4 °F 41% 29.99 in 10.0 mi SSE 11.5 mph 17.3 mph N/A   Unknown
3:55 AM 51.8 °F 28.4 °F 41% 29.98 in 10.0 mi SSE 11.5 mph 18.4 mph N/A   Unknown
4:15 AM 51.8 °F 28.4 °F 41% 29.97 in 10.0 mi SSE 11.5 mph 19.6 mph N/A   Unknown
4:35 AM 51.8 °F 28.4 °F 41% 29.95 in 10.0 mi SSE 12.7 mph 19.6 mph N/A   Unknown
4:55 AM 51.8 °F 28.4 °F 41% 29.94 in 10.0 mi SSE 12.7 mph 19.6 mph N/A   Unknown
5:15 AM 51.8 °F 28.4 °F 41% 29.94 in 10.0 mi SSE 12.7 mph 18.4 mph N/A   Unknown
5:35 AM 51.8 °F 28.4 °F 41% 29.94 in 10.0 mi SSE 9.2 mph - N/A   Unknown
5:55 AM 51.8 °F 28.4 °F 41% 29.95 in 10.0 mi SSE 8.1 mph - N/A   Unknown
6:15 AM 51.8 °F 28.4 °F 41% 29.96 in 10.0 mi SSE 8.1 mph - N/A   Unknown
6:35 AM 51.8 °F 28.4 °F 41% 29.96 in 10.0 mi SSE 6.9 mph - N/A   Unknown
6:55 AM 51.8 °F 28.4 °F 41% 29.96 in 10.0 mi South 10.4 mph - N/A   Unknown
7:15 AM 51.8 °F 28.4 °F 41% 29.96 in 10.0 mi SSE 9.2 mph - N/A   Unknown
7:35 AM 51.8 °F 28.4 °F 41% 29.96 in 10.0 mi SSE 9.2 mph - N/A   Unknown
7:55 AM 51.8 °F 28.4 °F 41% 29.97 in 10.0 mi SSE 9.2 mph - N/A   Unknown
8:15 AM 51.8 °F 26.6 °F 38% 29.97 in 10.0 mi SSE 10.4 mph 17.3 mph N/A   Unknown
8:35 AM 51.8 °F 26.6 °F 38% 29.97 in 10.0 mi SSE 9.2 mph 16.1 mph N/A   Unknown
8:55 AM 51.8 °F 26.6 °F 38% 29.98 in 10.0 mi SSE 9.2 mph - N/A   Unknown
9:15 AM 51.8 °F 26.6 °F 38% 29.97 in 10.0 mi SSE 10.4 mph - N/A   Unknown
9:35 AM 51.8 °F 28.4 °F 41% 29.98 in 10.0 mi SSE 6.9 mph - N/A   Unknown
9:55 AM 53.6 °F 28.4 °F 38% 29.98 in 10.0 mi SSE 8.1 mph - N/A   Unknown
10:15 AM 53.6 °F 28.4 °F 38% 29.98 in 10.0 mi SSE 6.9 mph - N/A   Unknown
10:35 AM 53.6 °F 26.6 °F 35% 29.98 in 10.0 mi SSE 9.2 mph - N/A   Unknown
10:55 AM 53.6 °F 28.4 °F 38% 29.98 in 10.0 mi SSE 10.4 mph - N/A   Unknown
11:15 AM 55.4 °F 28.4 °F 36% 29.97 in 10.0 mi South 10.4 mph - N/A   Unknown
11:35 AM 55.4 °F 28.4 °F 36% 29.96 in 10.0 mi SSE 10.4 mph - N/A   Unknown
11:55 AM 55.4 °F 30.2 °F 38% 29.96 in 10.0 mi South 11.5 mph 16.1 mph N/A   Unknown
12:15 PM 57.2 °F 30.2 °F 36% 29.94 in 10.0 mi South 11.5 mph - N/A   Unknown
12:35 PM 57.2 °F 28.4 °F 33% 29.93 in 10.0 mi SSE 10.4 mph 18.4 mph N/A   Unknown
12:55 PM 57.2 °F 30.2 °F 36% 29.92 in 10.0 mi SSE 11.5 mph - N/A   Unknown
1:15 PM 57.2 °F 30.2 °F 36% 29.91 in 10.0 mi South 10.4 mph 19.6 mph N/A   Unknown
1:35 PM 57.2 °F 30.2 °F 36% 29.91 in 10.0 mi South 13.8 mph 18.4 mph N/A   Unknown
1:55 PM 57.2 °F 30.2 °F 36% 29.88 in 10.0 mi SSE 12.7 mph 23.0 mph N/A   Unknown
2:15 PM 55.4 °F 30.2 °F 38% 29.89 in 10.0 mi SSE 12.7 mph - N/A   Unknown
2:35 PM 57.2 °F 30.2 °F 36% 29.89 in 10.0 mi South 15.0 mph 21.9 mph N/A   Unknown
2:55 PM 57.2 °F 30.2 °F 36% 29.87 in 10.0 mi South 9.2 mph 17.3 mph N/A   Unknown
3:15 PM 57.2 °F 30.2 °F 36% 29.84 in 10.0 mi SSE 11.5 mph 24.2 mph N/A   Unknown
3:35 PM 57.2 °F 30.2 °F 36% 29.86 in 10.0 mi South 13.8 mph 19.6 mph N/A   Unknown
3:55 PM 55.4 °F 33.8 °F 44% 29.85 in 10.0 mi SSE 6.9 mph 17.3 mph N/A   Unknown
4:15 PM 55.4 °F 32.0 °F 41% 29.85 in 10.0 mi SSE 12.7 mph 19.6 mph N/A   Unknown
4:55 PM 53.6 °F 32.0 °F 44% 29.82 in 10.0 mi SSE 11.5 mph 23.0 mph N/A   Unknown
5:15 PM 53.6 °F 33.8 °F 47% 29.81 in 10.0 mi SSE 12.7 mph 25.3 mph N/A   Unknown
5:35 PM 53.6 °F 33.8 °F 47% 29.78 in 10.0 mi SE 13.8 mph 21.9 mph N/A   Unknown
5:55 PM 53.6 °F 33.8 °F 47% 29.80 in 10.0 mi SSE 9.2 mph 17.3 mph N/A   Unknown
6:15 PM 53.6 °F 35.6 °F 51% 29.79 in 10.0 mi SSE 17.3 mph 24.2 mph N/A   Unknown
6:35 PM 53.6 °F 35.6 °F 51% 29.75 in 10.0 mi SSE 13.8 mph 27.6 mph N/A   Unknown
7:15 PM 53.6 °F 37.4 °F 54% 29.78 in 10.0 mi South 9.2 mph 24.2 mph N/A   Unknown
7:35 PM 53.6 °F 37.4 °F 54% 29.79 in 10.0 mi South 12.7 mph 27.6 mph N/A   Unknown
7:55 PM 53.6 °F 39.2 °F 58% 29.80 in 10.0 mi South 13.8 mph 21.9 mph N/A   Unknown
8:15 PM 51.8 °F 41.0 °F 67% 29.78 in 10.0 mi South 10.4 mph 25.3 mph N/A   Unknown
8:35 PM 53.6 °F 42.8 °F 67% 29.77 in 10.0 mi South 15.0 mph 21.9 mph N/A   Unknown
8:55 PM 53.6 °F 42.8 °F 67% 29.77 in 10.0 mi South 18.4 mph 25.3 mph N/A   Unknown
9:15 PM 53.6 °F 44.6 °F 72% 29.76 in 10.0 mi South 20.7 mph 26.5 mph N/A   Unknown
9:35 PM 53.6 °F 44.6 °F 72% 29.76 in 10.0 mi South 23.0 mph 32.2 mph N/A   Unknown
9:55 PM 53.6 °F 46.4 °F 77% 29.76 in 10.0 mi South 21.9 mph 29.9 mph N/A   Unknown
10:15 PM 53.6 °F 46.4 °F 77% 29.76 in 10.0 mi South 21.9 mph 31.1 mph N/A   Unknown
10:35 PM 53.6 °F 46.4 °F 77% 29.76 in 10.0 mi South 18.4 mph 34.5 mph N/A   Unknown
10:55 PM 53.6 °F 48.2 °F 82% 29.76 in 10.0 mi South 18.4 mph 27.6 mph N/A   Unknown
11:15 PM 53.6 °F 48.2 °F 82% 29.77 in 10.0 mi WSW 6.9 mph 20.7 mph N/A   Unknown
11:35 PM 51.8 °F 50.0 °F 94% 29.78 in 4.0 mi SW 10.4 mph - 0.03 in   Unknown
11:55 PM 51.8 °F 51.8 °F 100% 29.78 in 10.0 mi SSW 12.7 mph - 0.06 in   Unknown